Regional Weather Roundup
Issued by NWS

Home | Current Version | Previous Version | Text Only | Print | Product List | Glossary Off
Versions: 1 2 3 4 5 6 7 8 9 10 11 12 13 14 15 16 17 18 19 20 21 22 23 24 25 26 27 28 29 30 31 32 33 34 35 36 37 38 39 40 41 42 43 44 45 46 47 48 49 50

000
ASUS43 KOAX 090010
RWRNE

WEATHER ROUNDUP FOR NEBRASKA
NATIONAL WEATHER SERVICE OMAHA NE
600 PM CST MON FEB 08 2016

NOTES: SATELLITE DATA IS BEING USED TO AUGMENT CLOUD COVER ABOVE
       12000 FEET.
       "FAIR" INDICATES FEW OR NO CLOUDS BELOW 12,000 FEET WITH NO
       SIGNIFICANT WEATHER AND/OR OBSTRUCTIONS TO VISIBILITY.

  * THESE STATIONS DO NOT REPORT WEATHER SUCH AS RAIN...SNOW OR FOG.

NEZ001>004-019>022-054>056-090100-
NEBRASKA PANHANDLE

CITY           SKY/WX    TMP DP  RH WIND       PRES   REMARKS
SCOTTSBLUFF    CLOUDY    40  29  64 NW9       30.29S WCI  34
6HR MIN TEMP:  36; 6HR MAX TEMP:  42;

ALLIANCE       CLOUDY    32  25  75 W9        30.25S WCI  24
6HR MIN TEMP:  31; 6HR MAX TEMP:  36;

CHADRON        CLOUDY    38  25  59 N6        30.28R WCI  33
6HR MIN TEMP:  36; 6HR MAX TEMP:  42;

KIMBALL        CLOUDY    38  29  69 NW12      30.28F WCI  31
SIDNEY         CLOUDY    38  28  67 N15       30.27S WCI  29
6HR MIN TEMP:  33; 6HR MAX TEMP:  39;

$$

NEZ057>060-069>072-079>082-090100-
SOUTHWEST NEBRASKA

CITY           SKY/WX    TMP DP  RH WIND       PRES   REMARKS
NORTH PLATTE   CLOUDY    34  18  52 NW14      30.23F WCI  25
6HR MIN TEMP:  33; 6HR MAX TEMP:  37;

IMPERIAL       CLOUDY    34  19  54 NW9       30.27S WCI  27
6HR MIN TEMP:  33; 6HR MAX TEMP:  38;

LEXINGTON      CLEAR     33  17  51 NW10      30.21F WCI  25
MCCOOK         CLEAR     33  19  56 NW7       30.26F WCI  27
6HR MIN TEMP:  33; 6HR MAX TEMP:  37;

OGALLALA       CLOUDY    35  20  55 NW10      30.26F WCI  28
$$

NEZ005>010-023>029-035>040-094-090100-
NORTH CENTRAL NEBRASKA

CITY           SKY/WX    TMP DP  RH WIND       PRES   REMARKS
VALENTINE      MOCLDY    32  17  54 NW8       30.23S WCI  25
6HR MIN TEMP:  30; 6HR MAX TEMP:  36;

AINSWORTH      CLEAR     34  15  46 NW21G29   30.21R WCI  22
BROKEN BOW     CLEAR     33  14  45 N17       30.19S WCI  22
6HR MIN TEMP:  33; 6HR MAX TEMP:  37;

O`NEILL        CLEAR     32  20  60 NW17G24   30.18F WCI  21
ORD            PTCLDY    32  18  56 NW18      30.18S WCI  20
6HR MIN TEMP:  32; 6HR MAX TEMP:  36;

THEDFORD       CLEAR     34  13  41 NW14G21   30.22F WCI  25
$$

NEZ041-046>049-061>064-073>077-083>087-090100-
SOUTH CENTRAL NEBRASKA

CITY           SKY/WX    TMP DP  RH WIND       PRES   REMARKS
GRAND ISLAND   CLEAR     32  18  56 NW12      30.19R WCI  23
6HR MIN TEMP:  31; 6HR MAX TEMP:  36;

AURORA         PTCLDY    32  20  62 NW13      30.17S WCI  22
HASTINGS       CLEAR     31  18  58 NW16      30.18S WCI  20
6HR MIN TEMP:  30; 6HR MAX TEMP:  36;

HEBRON         CLEAR     34  20  57 NW13      30.17S WCI  25
HOLDREGE       PTCLDY    33  16  50 NW12      30.21F WCI  24
YORK           CLEAR     32  21  64 NW20      30.15S WCI  20
$$

NEZ011>018-030>034-042>045-090100-
NORTHEAST NEBRASKA

CITY           SKY/WX    TMP DP  RH WIND       PRES   REMARKS
NORFOLK        PTCLDY    32  20  61 NW23      30.11S WCI  19
6HR MIN TEMP:  29; 6HR MAX TEMP:  34;

ALBION         CLEAR     32  19  59 NW22      30.13S WCI  19
BLAIR          CLEAR     28  19  70 NW15G22   30.09R WCI  16
COLUMBUS *     CLEAR     30  14  51 NW16      30.13S WCI  19
FREMONT        CLEAR     28  19  67 NW6       30.12S WCI  22
TEKAMAH        CLOUDY    28  18  66 N21       30.11R WCI  15
6HR MIN TEMP:  28; 6HR MAX TEMP:  34; 6HR PCP: TRACE;

WAYNE          PTCLDY    30  20  66 NW17G24   30.11S WCI  18
$$

NEZ050>053-065>068-078-088>093-090100-
SOUTHEAST NEBRASKA

CITY           SKY/WX    TMP DP  RH WIND       PRES   REMARKS
LINCOLN        CLEAR     33  20  58 NW13      30.14S WCI  24
6HR MIN TEMP:  31; 6HR MAX TEMP:  35;

OMAHA EPPLEY   PTCLDY    27  18  69 N15       30.10S WCI  15
6HR MIN TEMP:  27; 6HR MAX TEMP:  30; 6HR PCP: TRACE;

BEATRICE       CLEAR     32  24  70 NW16G23   30.14S WCI  22
FALLS CITY     CLEAR     31  17  56 NW14G23   30.11S WCI  21
6HR MIN TEMP:  31; 6HR MAX TEMP:  33; 6HR PCP: TRACE;

NEBRASKA CITY  CLEAR     29  20  68 N13       30.11S WCI  18
PLATTSMOUTH    CLEAR     28  19  69 NW17      30.10S WCI  15
$$

NEZ044-045-051>053-067-090100-
OMAHA AREA

CITY           SKY/WX    TMP DP  RH WIND       PRES   REMARKS
OMAHA EPPLEY   PTCLDY    27  18  69 N15       30.10S WCI  15
6HR MIN TEMP:  27; 6HR MAX TEMP:  30; 6HR PCP: TRACE;

BLAIR          CLEAR     28  19  70 NW15G22   30.09R WCI  16
FREMONT        CLEAR     28  19  67 NW6       30.12S WCI  22
MILLARD        CLEAR     29  20  67 NW10G17   30.11S WCI  20
OFFUTT AFB     CLEAR     29  17  62 NW16G23   30.09F WCI  17
PLATTSMOUTH    CLEAR     28  19  69 NW17      30.10S WCI  15
WAHOO          FAIR      30  20  66 NW13      30.12S WCI  20
$$



USA.gov is the U.S. government's official web portal to all federal, state and local government web resources and services.